NOAA 16 DEB

Satellite information

Favourite Embed

Satellite Type and Status

DEBRISIN ORBIT

Key statistics

Satellite NOAA 16 DEB at a glance.

Uptime

9000

Days in orbit

Revolutions

≈ 13.5

Per day

Orbit

SSO

Sun Synchronous Orbit

Inclination

98.9

Latest

Satellite identification and parameters

Extended collection of information and parameters for NOAA 16 DEB.

Object identification

Identified? True

Debris? True

Object name: NOAA 16 DEB

International designator: 2000-055AF

Object number (NORAD): 41072

Object ID (CCSDS): 41072

Country: UNITED STATES OF AMERICA (US)

Current information (Y/N): Y

RCS size: SMALL

Orbital parameters

Period: 106.314 minutes

Inclination: 98.8542 deg

SMA: 7433.985 km

Apoapsis: 1268.222 km

Periapsis: 843.477 km

RAAN: 235.3292 deg

Eccentricy: 0.0285678

Argument of periapsis: 69.9139 deg

Mean anomaly: 293.2503 deg

Mean motion: 13.54472712 rev/day

Mean motion (dot): 0.00000237 rev/day2

B* drag term: 0.00030747 1/REarth

Two-line elements (TLE)

Creation date: May 12, 2025, 6:26 a.m.

Reference frame: TEME

Reference center: EARTH

Epoch: May 12, 2025, 5:14 a.m. UTC

TLE line 0: 0 NOAA 16 DEB

TLE line 1: 1 41072U 00055AF 25132.21841470 .00000237 00000-0 30747-3 0 9990

TLE line 2: 2 41072 98.8542 235.3292 0285678 69.9139 293.2503 13.54472712467109

Live tracking on map

Real-time ground track for satellite NOAA 16 DEB.

In-orbit conjunctions

A list of the most updated potential collisions computed for object NOAA 16 DEB.

Target Orbit TCA Probability of collision Miss distance Type
CZ-6A DEB SSO 2024-09-26 15:42:01 0.0002629579 713.0 (m) DEBRIS

Associated space launch

The NOAA K, L and M POES satellites begin the fifth generation of improved environmental monitoring in support of NOAA missions. The instrument payload has significant improvements and additions/deletions. The instrument changes have effected the spacecraft subsystems and data formats.

NOAA 16 DEB was lifted into orbit during the mission ‘Titan II SLV | NOAA 16’, on board a Titan II SLV space rocket.

The launch took place on Sept. 21, 2000, 10:22 a.m. from Space Launch Complex 4W.

For more information about the launch, click the button.

Launch to space Titan II SLV | NOAA 16
Titan II SLV | NOAA 16

Agency: N/A

Status: Launch Successful

Launch date: Sept. 21, 2000, 10:22 a.m. UTC

Rocket: Titan II SLV

Launch pad: Space Launch Complex 4W

Location: Vandenberg SFB, CA, USA

...

Latest news about this satellite

There are no fresh news available about this satellite. Check back as we update our databases every day.


Newsletter sign-up

Weekly statistics, charts and insights to help you stay on top of the space industry.